Weather History for Christchurch, New Zealand

Change the Weather History Date:

Tuesday, March 5, 2013

  Actual Average Record
Temperature  
Mean Temperature 58 °F -  
Max Temperature 69 °F 68 °F 87 °F (1998)
Min Temperature 46 °F 50 °F 39 °F (2006)
Degree Days  
Heating Degree Days 8    
Growing Degree Days 8 (Base 50)    
Moisture  
Dew Point 47 °F    
Average Humidity 70    
Maximum Humidity 93    
Minimum Humidity 43    
Precipitation  
Precipitation 0.00 in - - ()
Sea Level Pressure  
Sea Level Pressure 29.97 in    
Wind  
Wind Speed 6 mph ()    
Max Wind Speed 17 mph    
Max Gust Speed -    
Visibility 6.2 miles    
Events      
Averages and records for this station are not official NWS values.
T = Trace of Precipitation, MM = Missing Value Source: Averaged Metar Reports

Daily Weather History Graph

Daily Weather History Graph

Search for Another Location

Airport:

Trip Planner

Search our weather history database for the weather conditions in past years. The results will help you decide how hot, cold, wet, or windy it might be!

Date:

Astronomy

Mar. 05, 2013 Rise Set
Actual Time 7:13 AM NZDT 8:08 PM NZDT
Civil Twilight 6:44 AM NZDT 8:37 PM NZDT
Nautical Twilight 6:09 AM NZDT 9:12 PM NZDT
Astronomical Twilight 5:33 AM NZDT 9:48 PM NZDT
Moon No Moon Rise 3:03 PM NZDT (3/5)
Length of Visible Light 13h 53m
Length of Day
12h 55m
Waning Gibbous, 49% of the Moon is Illuminated
Mar 5
Waning Gibbous
Mar 12
New
Mar 20
First Quarter
Mar 27
Full
Apr 3
Last Quarter

Hourly Weather History & Observations

Time (NZDT) Temp. Dew Point Humidity Pressure Visibility Wind Dir Wind Speed Gust Speed Precip Events Conditions
12:00 AM 53.6 °F 46.4 °F 77% 29.98 in 6.2 mi South 6.9 mph - N/A   Mostly Cloudy
1:00 AM 51.8 °F 48.2 °F 88% 29.98 in 6.2 mi South 4.6 mph - N/A   Light Drizzle
2:00 AM 51.8 °F 46.4 °F 82% 29.98 in 6.2 mi West 4.6 mph - N/A   Mostly Cloudy
3:00 AM 51.8 °F 46.4 °F 82% 29.98 in 6.2 mi West 4.6 mph - N/A   Drizzle
4:00 AM 51.8 °F 48.2 °F 88% 29.98 in 6.2 mi South 4.6 mph - N/A   Drizzle
5:00 AM 51.8 °F 48.2 °F 88% 29.98 in 6.2 mi WNW 2.3 mph - N/A   Mostly Cloudy
6:00 AM 51.8 °F 48.2 °F 88% 29.98 in 6.2 mi WNW 4.6 mph - N/A   Mostly Cloudy
7:00 AM 48.2 °F 46.4 °F 93% 30.01 in 6.2 mi NW 3.5 mph - N/A   Scattered Clouds
8:00 AM 46.4 °F 44.6 °F 93% 30.01 in 6.2 mi NNE 1.2 mph - N/A   Partly Cloudy
9:00 AM 53.6 °F 48.2 °F 82% 30.01 in 6.2 mi North 4.6 mph - N/A   Partly Cloudy
10:00 AM 57.2 °F 46.4 °F 67% 30.01 in 6.2 mi NE 9.2 mph - N/A   Partly Cloudy
11:00 AM 60.8 °F 44.6 °F 55% 30.01 in 6.2 mi NNE 6.9 mph - N/A   Partly Cloudy
12:00 PM 64.4 °F 46.4 °F 52% 30.01 in - East 4.6 mph - N/A   Clear
1:00 PM 66.2 °F 44.6 °F 46% 30.01 in - ENE 5.8 mph - N/A   Clear
2:00 PM 68.0 °F 46.4 °F 46% 29.98 in - East 9.2 mph - N/A   Clear
3:00 PM 69.8 °F 46.4 °F 43% 29.95 in - East 11.5 mph - N/A   Clear
4:00 PM 68.0 °F 50.0 °F 52% 29.95 in - East 12.7 mph - N/A   Clear
5:00 PM 68.0 °F 48.2 °F 49% 29.92 in - East 12.7 mph - N/A   Clear
6:00 PM 66.2 °F 48.2 °F 52% 29.92 in - ENE 17.3 mph - N/A   Clear
7:00 PM 62.6 °F 50.0 °F 63% 29.92 in - ENE 16.1 mph - N/A   Clear
8:00 PM 60.8 °F 50.0 °F 68% 29.92 in - NE 15.0 mph - N/A   Clear
9:00 PM 59.0 °F 50.0 °F 72% 29.92 in - NE 10.4 mph - N/A   Clear
10:00 PM 55.4 °F 48.2 °F 77% 29.92 in - NE 8.1 mph - N/A   Clear
11:00 PM 53.6 °F 46.4 °F 77% 29.89 in 6.2 mi NE 8.1 mph - N/A   Partly Cloudy